sat.trackr.live / text

‹ back to catalog

QIANFAN-207

NORAD 69806 · 2026-153G

PAYLOAD ACTIVE UNKNOWN

§ Identity

Operator
Country
PRC
Launch date
2026-07-04
Launch site
TAISC
Launch vehicle
Mass (kg)
RCS (m²)

External: N2YO · Heavens-Above · Gunter

§ Orbital elements

Epoch: 2026-09-20T03:42:33.005088Z

Period
102.52 min
Inclination
88.9978°
Eccentricity
0.0006585
Mean motion
14.04604552 rev/d
Perigee alt
873.1 km
Apogee alt
882.7 km
Semi-major
7,256.0 km
B*
1.2806e-5
RAAN
351.4984°
Arg perigee
350.3743°
Mean anomaly
9.7311°
Rev number
1,100

§ Raw data

QIANFAN-2071 69806U 26153G   26263.15454867  .00000034  00000+0  12806-4 0  99922 69806  88.9978 351.4984 0006585 350.3743   9.7311 14.04604552 11007

JSON: /api/v1/satellites/69806 · /tle

For live sub-satellite position, see the globe view (requires WebGL).

§ Visibility from observer

Set your observer location to see the next 7 days of passes ≥ 10°. The values pass through the URL so the page stays shareable.

No JS? Fill the form by hand. The geolocation button needs JavaScript.